KJ4RUS Largo FL US current weather conditions

sailwx.info

Wind from 052 at 2 knots gusting 8

Air temperature 26.7° C
Dewpoint 23.7° C

Last reported at 2019-Sep-15 22:00 UTC.
Time now 2019-Sep-15 22:17 UTC

Location: N 27°54' W 082°49'.
View on Google Maps.

See reports from other nearby stations

  
Tides and Currents Weather Stations Pressure Air Temp Water Temp Dewpoint Dewpoint Depression Visibility Wind Speed Wind Dir Waves Ship Positions
date/time (UTC)wind fromknots sea level pressurealtimeterstation pressurevisibilityair tempwater tempwave heightnotes
2019-Sep-15 22:00 052 2 gusting 8 26.7
2019-Sep-15 21:45 056 6 gusting 11 28.9
2019-Sep-15 21:32 327 0 gusting 7 29.4
2019-Sep-15 21:17 304 0 gusting 6 30.0
2019-Sep-15 21:01 288 2 gusting 9 30.0
2019-Sep-15 20:47 346 2 gusting 11 30.6
2019-Sep-15 20:31 336 5 gusting 10 30.0
2019-Sep-15 20:17 329 1 gusting 7 29.4
2019-Sep-15 20:01 320 29.4
2019-Sep-15 19:48 329 1 gusting 6 29.4
2019-Sep-15 19:31 302 28.9
2019-Sep-15 19:17 355 1 gusting 8 29.4
2019-Sep-15 19:02 306 2 gusting 7 29.4
2019-Sep-15 18:46 336 1 gusting 10 30.0
2019-Sep-15 18:31 303 2 gusting 7 29.4
2019-Sep-15 18:16 302 2 gusting 7 28.9
2019-Sep-15 18:01 294 3 gusting 7 28.9
2019-Sep-15 17:46 314 1 gusting 10 30.0
2019-Sep-15 17:31 316 30.6
2019-Sep-15 17:16 334 0 gusting 5 30.6
2019-Sep-15 17:01 092 0 gusting 5 30.6
2019-Sep-15 16:46 038 30.6
2019-Sep-15 16:31 119 30.0
2019-Sep-15 16:15 360 29.4
2019-Sep-15 16:01 101 28.9
2019-Sep-15 15:46 043 1 gusting 7 28.3
2019-Sep-15 15:30 040 28.3
2019-Sep-15 15:15 035 1 gusting 6 27.8
2019-Sep-15 15:00 030 27.2
2019-Sep-15 14:45 063 0 gusting 8 27.2
2019-Sep-15 14:30 072 4 gusting 9 26.7
2019-Sep-15 14:15 086 3 gusting 10 26.7
2019-Sep-15 14:02 322 0 gusting 6 26.1
2019-Sep-15 13:47 044 26.1
2019-Sep-15 13:31 023 25.6
2019-Sep-15 13:16 032 2 gusting 6 25.6
2019-Sep-15 13:01 044 2 gusting 7 25.0
2019-Sep-15 12:45 066 0 gusting 4 25.0
2019-Sep-15 12:30 043 25.0
2019-Sep-15 12:16 022 1 gusting 6 24.4
2019-Sep-15 12:00 040 24.4
2019-Sep-15 11:45 040 1 gusting 6 24.4
2019-Sep-15 11:30 034 0 gusting 4 24.4
2019-Sep-15 11:15 052 24.4
2019-Sep-15 11:01 350 24.4
2019-Sep-15 10:46 044 0 gusting 4 24.4
2019-Sep-15 10:30 051 0 gusting 4 24.4
2019-Sep-15 10:15 046 0 gusting 5 24.4
2019-Sep-15 10:01 092 0 gusting 4 24.4
2019-Sep-15 09:45 041 0 gusting 4 24.4
2019-Sep-15 09:31 045 1 gusting 5 24.4
2019-Sep-15 09:15 050 0 gusting 4 24.4
2019-Sep-15 09:00 049 1 gusting 4 25.0
2019-Sep-15 08:45 059 25.0
2019-Sep-15 08:31 036 25.0
2019-Sep-15 08:16 045 1 gusting 5 25.0
2019-Sep-15 08:00 072 2 gusting 6 25.0
2019-Sep-15 07:45 044 0 gusting 4 25.0
2019-Sep-15 07:30 065 25.0
2019-Sep-15 07:15 027 0 gusting 4 25.0
2019-Sep-15 07:00 017 25.6
2019-Sep-15 06:45 040 0 gusting 3 25.6
2019-Sep-15 06:30 030 0 gusting 4 25.6
2019-Sep-15 06:15 053 2 gusting 7 25.6
2019-Sep-15 06:00 051 2 gusting 8 25.6
2019-Sep-15 05:45 034 1 gusting 6 25.6
2019-Sep-15 05:16 072 2 gusting 7 26.1
2019-Sep-15 05:01 069 3 gusting 8 26.1
2019-Sep-15 04:47 057 1 gusting 10 26.1
2019-Sep-15 04:31 061 3 gusting 7 26.1
2019-Sep-15 04:17 072 5 gusting 12 26.1
2019-Sep-15 04:01 035 1 gusting 6 26.7
2019-Sep-15 03:46 041 2 gusting 8 26.7
2019-Sep-15 03:31 067 3 gusting 8 26.7
2019-Sep-15 03:16 029 1 gusting 11 26.7
2019-Sep-15 03:01 044 4 gusting 11 26.7
2019-Sep-15 02:46 057 5 gusting 12 26.7
2019-Sep-15 02:31 053 6 gusting 13 27.2
2019-Sep-15 02:16 082 4 gusting 11 27.2
2019-Sep-15 02:01 045 5 gusting 14 27.2
2019-Sep-15 01:45 053 2 gusting 11 27.8
2019-Sep-15 01:31 057 6 gusting 13 27.8
2019-Sep-15 01:16 058 6 gusting 13 27.8
2019-Sep-15 01:01 028 3 gusting 19 27.8
2019-Sep-15 00:45 057 5 gusting 18 27.8
2019-Sep-15 00:30 014 6 gusting 14 28.3
2019-Sep-15 00:15 081 8 gusting 16 28.3
2019-Sep-15 00:01 047 4 gusting 10 28.3
2019-Sep-14 23:45 024 5 gusting 13 28.3
2019-Sep-14 23:32 048 5 gusting 14 28.3
2019-Sep-14 23:16 355 5 gusting 15 28.3
2019-Sep-14 23:02 038 3 gusting 14 28.3
2019-Sep-14 22:46 074 4 gusting 13 28.9
2019-Sep-14 22:31 046 6 gusting 13 28.9
2019-Sep-14 22:16 061 9 gusting 19 29.4
2019-Sep-14 22:00 046 5 gusting 13 29.4
2019-Sep-14 21:46 061 7 gusting 14 28.9
2019-Sep-14 21:31 042 5 gusting 13 28.3
2019-Sep-14 21:16 022 5 gusting 13 28.3
2019-Sep-14 21:00 067 3 gusting 10 28.9
2019-Sep-14 20:45 044 5 gusting 14 30.0
2019-Sep-14 20:30 071 6 gusting 14 30.6
2019-Sep-14 20:16 360 5 gusting 16 31.1
2019-Sep-14 20:01 005 1 gusting 11 31.1
2019-Sep-14 19:46 055 2 gusting 12 31.1
2019-Sep-14 19:30 043 5 gusting 18 30.6
2019-Sep-14 19:15 079 7 gusting 13 30.6
2019-Sep-14 19:00 042 5 gusting 11 30.0
2019-Sep-14 18:45 031 7 gusting 15 28.9
2019-Sep-14 18:30 058 5 gusting 12 27.2
2019-Sep-14 18:15 051 3 gusting 15 27.8
2019-Sep-14 18:00 054 6 gusting 15 30.6
2019-Sep-14 17:30 064 6 gusting 12 31.7
2019-Sep-14 17:15 013 5 gusting 12 31.7
2019-Sep-14 17:00 057 9 gusting 16 31.1
2019-Sep-14 16:45 078 7 gusting 16 30.6
2019-Sep-14 16:32 066 6 gusting 13 30.6
2019-Sep-14 16:18 055 7 gusting 13 30.0
2019-Sep-14 16:02 075 5 gusting 13 30.0
2019-Sep-14 15:47 046 1 gusting 12 30.0
2019-Sep-14 15:31 058 4 gusting 10 29.4
2019-Sep-14 15:15 067 6 gusting 13 29.4
2019-Sep-14 15:01 046 4 gusting 12 28.9
2019-Sep-14 14:46 061 6 gusting 13 28.3
2019-Sep-14 14:31 064 5 gusting 14 28.3
2019-Sep-14 14:16 041 6 gusting 15 27.8
2019-Sep-14 14:01 017 6 gusting 12 27.8
2019-Sep-14 13:45 074 4 gusting 11 27.8
2019-Sep-14 13:30 077 6 gusting 14 27.2
2019-Sep-14 13:15 061 4 gusting 12 26.7
2019-Sep-14 13:01 056 5 gusting 11 26.1
2019-Sep-14 12:45 076 5 gusting 13 25.6
2019-Sep-14 12:31 076 4 gusting 11 25.0
2019-Sep-14 12:15 044 3 gusting 8 25.0
2019-Sep-14 12:00 054 4 gusting 10 24.4
2019-Sep-14 11:45 044 2 gusting 12 24.4
2019-Sep-14 11:30 062 1 gusting 9 24.4
2019-Sep-14 11:17 048 1 gusting 8 24.4
2019-Sep-14 11:02 058 2 gusting 10 24.4
2019-Sep-14 10:48 024 4 gusting 12 24.4
2019-Sep-14 10:32 044 1 gusting 6 24.4
2019-Sep-14 10:18 053 1 gusting 5 24.4
2019-Sep-14 10:02 048 2 gusting 6 24.4
2019-Sep-14 09:46 024 1 gusting 5 24.4
2019-Sep-14 09:32 343 1 gusting 7 24.4
2019-Sep-14 09:16 065 1 gusting 8 24.4
2019-Sep-14 09:01 036 1 gusting 7 25.0
2019-Sep-14 08:46 047 1 gusting 6 25.0
2019-Sep-14 08:32 360 2 gusting 10 25.0
2019-Sep-14 08:16 061 2 gusting 12 25.0
2019-Sep-14 08:01 049 5 gusting 11 25.0
2019-Sep-14 07:46 077 3 gusting 7 25.0
2019-Sep-14 07:31 064 5 gusting 12 25.0
2019-Sep-14 07:16 051 4 gusting 9 25.0
2019-Sep-14 07:01 099 4 gusting 10 25.0
2019-Sep-14 06:45 071 2 gusting 9 25.0
2019-Sep-14 06:32 040 2 gusting 9 25.0
2019-Sep-14 06:17 014 0 gusting 6 25.0
2019-Sep-14 06:00 040 0 gusting 5 25.6
2019-Sep-14 05:45 056 1 gusting 6 25.6
2019-Sep-14 05:30 056 1 gusting 7 25.6
2019-Sep-14 05:15 056 2 gusting 6 25.6
2019-Sep-14 05:00 042 2 gusting 7 26.1
2019-Sep-14 04:45 005 1 gusting 9 26.1
2019-Sep-14 04:30 030 3 gusting 9 26.1
2019-Sep-14 04:15 057 2 gusting 10 26.1
2019-Sep-14 04:00 042 3 gusting 8 26.1
2019-Sep-14 03:45 028 2 gusting 9 26.1
2019-Sep-14 03:30 061 2 gusting 10 26.7
2019-Sep-14 03:15 065 3 gusting 10 26.7
2019-Sep-14 03:00 009 5 gusting 11 26.7
2019-Sep-14 02:45 049 5 gusting 9 26.7
2019-Sep-14 02:30 039 4 gusting 8 26.7
2019-Sep-14 02:15 105 3 gusting 10 26.7
2019-Sep-14 02:00 053 1 gusting 5 26.7
2019-Sep-14 01:45 086 2 gusting 9 26.7
2019-Sep-14 01:30 052 5 gusting 12 26.7
2019-Sep-14 01:15 068 4 gusting 13 26.7
2019-Sep-14 01:00 042 4 gusting 13 26.7
2019-Sep-14 00:45 066 2 gusting 15 27.2
2019-Sep-14 00:17 049 5 gusting 17 27.2
2019-Sep-14 00:01 070 6 gusting 15 27.8
2019-Sep-13 23:46 068 5 gusting 13 27.8
2019-Sep-13 23:31 029 5 gusting 14 27.8
2019-Sep-13 23:17 038 6 gusting 12 27.2
2019-Sep-13 23:01 079 5 gusting 12 27.2
2019-Sep-13 22:46 074 4 gusting 13 27.8
2019-Sep-13 22:32 072 2 gusting 11 30.0
2019-Sep-13 22:16 058 3 gusting 11 30.0
2019-Sep-13 22:01 062 5 gusting 12 30.0